Date,TemperatureHighF,TemperatureAvgF,TemperatureLowF,DewpointHighF,DewpointAvgF,DewpointLowF,HumidityHigh,HumidityAvg,HumidityLow,PressureMaxIn,PressureMinIn,WindSpeedMaxMPH,WindSpeedAvgMPH,GustSpeedMaxMPH,PrecipitationSumIn
2013-1-12,64.8,39.0,26.1,36.2,18.6,15.4,71,46,27,30.12,29.97,8,2,8,0.00
2013-1-13,53.1,34.2,21.0,25.8,16.6,10.4,84,52,26,30.24,30.03,12,2,13,0.00
2013-1-14,56.5,36.9,26.1,21.3,15.9,12.0,67,44,22,30.36,30.21,13,4,13,0.00
2013-1-15,58.5,39.7,26.4,31.3,23.7,18.5,81,55,29,30.44,30.27,10,2,10,0.00
2013-1-16,60.8,39.2,27.3,37.2,27.0,22.7,91,65,31,30.36,30.12,10,2,11,0.00
2013-1-17,63.0,38.9,24.6,38.6,26.8,20.8,96,66,34,30.24,30.00,8,2,9,0.00
2013-1-18,70.3,41.8,26.8,35.4,25.8,20.2,96,60,22,30.18,29.97,8,2,9,0.00
2013-1-19,69.1,40.7,25.0,34.0,24.6,17.4,91,59,22,30.21,30.00,7,2,8,0.00
2013-1-20,72.0,36.1,26.8,31.6,24.4,19.2,86,67,20,30.18,29.94,8,2,8,0.00
2013-1-21,63.9,42.1,28.4,34.2,27.6,22.9,86,61,27,30.12,29.97,13,3,13,0.00
2013-1-22,68.7,44.2,28.8,37.4,29.0,23.4,88,60,24,30.09,29.88,8,2,8,0.00
2013-1-23,54.9,44.7,37.8,46.8,35.2,29.2,98,70,50,30.03,29.88,8,2,10,0.46
2013-1-24,61.5,53.0,46.9,51.1,48.7,46.4,98,86,64,30.06,29.97,10,4,12,0.08
2013-1-25,64.9,55.5,48.7,56.0,51.2,48.2,98,87,58,30.06,29.85,6,2,8,0.00
2013-1-26,61.7,51.6,43.5,54.1,44.7,27.1,98,80,42,29.88,29.74,10,2,11,0.04
2013-1-27,62.8,45.8,32.7,39.3,27.8,19.9,93,53,26,30.03,29.88,10,3,12,0.00
2013-1-28,59.0,45.3,37.6,31.3,29.4,26.0,72,56,32,30.15,30.03,10,2,10,0.00
2013-1-29,65.1,46.3,33.3,39.5,32.9,27.8,89,63,34,30.24,30.06,13,3,13,0.00
2013-1-30,70.5,50.2,39.0,41.1,36.6,33.4,86,63,33,30.21,30.06,12,4,12,0.00
2013-1-31,68.9,47.0,32.5,45.6,36.0,29.6,96,69,35,30.21,30.00,9,2,10,0.00
2013-2-1,72.7,49.9,34.2,44.5,36.0,31.1,98,65,25,30.12,29.94,7,2,7,0.00
2013-2-2,70.7,49.0,38.7,40.9,36.2,33.6,87,65,32,30.18,30.00,5,2,6,0.00
2013-2-3,72.0,49.5,33.6,43.6,37.3,30.5,98,67,29,30.12,29.91,7,2,9,0.00
2013-2-4,68.0,48.5,36.7,45.8,37.5,33.2,96,69,33,30.06,29.88,9,2,10,0.00
2013-2-5,61.0,47.3,37.4,44.5,40.1,33.2,98,77,49,30.03,29.85,16,4,18,0.00
2013-2-6,65.7,48.9,32.2,46.7,35.6,30.8,98,65,33,30.06,29.88,15,4,15,0.00
2013-2-7,60.3,47.9,41.4,49.1,39.6,32.6,97,74,44,30.00,29.82,21,8,24,0.21
2013-2-8,61.3,47.2,39.0,39.0,30.6,19.8,95,58,26,29.91,29.76,23,6,26,0.00
2013-2-9,65.7,46.9,30.4,29.3,24.3,19.2,74,44,23,29.97,29.82,14,4,16,0.00
2013-2-10,68.9,46.9,30.2,33.8,26.6,21.3,83,49,22,30.06,29.82,14,3,15,0.00
2013-2-11,70.7,50.1,31.3,31.4,26.8,21.5,79,44,22,30.12,29.94,9,3,10,0.00
2013-2-12,67.8,49.6,33.6,36.3,31.1,25.1,75,52,28,30.24,30.12,9,2,10,0.00
2013-2-13,74.1,44.5,32.2,41.8,33.0,20.4,97,68,24,30.24,30.00,11,2,12,0.00
2013-2-14,76.6,55.9,37.8,37.9,33.5,28.3,90,49,22,30.15,29.97,20,6,21,0.00
2013-2-15,77.5,52.5,35.4,41.7,34.0,26.8,83,53,22,30.18,30.00,10,2,10,0.00
2013-2-16,75.2,52.0,37.0,39.1,35.9,32.4,89,59,24,30.15,29.85,10,3,10,0.00
2013-2-17,72.9,50.5,36.9,37.8,30.1,18.6,92,53,19,29.91,29.74,15,4,15,0.00
2013-2-18,64.6,42.9,32.9,41.4,31.5,25.7,87,66,36,29.88,29.71,25,5,25,0.00
2013-2-19,56.1,44.6,32.7,41.4,35.9,29.0,88,72,46,29.76,29.56,27,10,31,0.16
2013-2-20,64.2,47.0,32.5,35.1,27.9,21.7,94,53,25,29.91,29.71,20,6,21,0.05
2013-2-21,66.7,46.7,31.5,33.9,26.1,17.5,81,49,23,30.06,29.88,13,3,13,0.00
2013-2-22,67.3,50.9,36.1,35.6,30.9,25.2,69,48,27,30.15,29.94,21,4,22,0.00
2013-2-23,64.0,52.1,41.0,37.6,24.8,15.7,76,37,21,30.15,29.97,26,8,26,0.00
2013-2-24,69.6,51.2,35.1,27.2,22.3,17.2,57,35,15,30.21,29.94,20,5,20,0.00
2013-2-25,70.2,54.6,38.7,33.2,26.6,14.3,63,37,15,30.18,29.97,14,4,14,0.00
2013-2-26,71.1,50.9,34.3,28.8,23.0,17.1,62,37,17,30.15,29.94,16,5,17,0.00
2013-2-27,71.6,51.3,32.2,35.7,28.7,21.9,77,46,23,30.21,30.06,15,3,16,0.00
2013-2-28,78.3,58.6,41.4,38.9,35.5,32.0,75,46,21,30.30,30.15,9,2,10,0.00
2013-3-1,75.2,52.2,39.9,44.8,39.3,34.9,93,64,31,30.30,30.06,8,2,8,0.00
2013-3-2,76.8,56.3,44.8,47.6,43.5,38.0,83,65,32,30.12,29.88,9,1,10,0.00
2013-3-3,73.8,59.2,49.5,53.4,47.1,41.0,94,67,33,29.91,29.79,13,3,15,0.04
2013-3-4,73.2,61.5,46.4,46.9,44.4,40.9,85,56,34,29.94,29.79,17,5,18,0.00
2013-3-5,66.2,56.0,48.0,46.7,36.0,26.8,85,49,26,29.85,29.65,33,12,36,0.08
2013-3-6,62.1,51.6,43.0,45.8,37.5,31.5,92,61,35,29.88,29.62,38,14,40,0.17
2013-3-7,66.6,45.2,36.7,39.1,33.5,28.5,88,67,29,29.88,29.71,10,2,11,0.00
2013-3-8,73.9,53.6,37.4,35.6,30.8,22.6,86,47,21,29.88,29.59,14,5,14,0.00
2013-3-9,75.9,54.0,36.9,40.7,31.2,22.3,85,49,15,30.18,29.88,16,4,17,0.00
2013-3-10,80.1,53.2,36.7,39.7,31.9,25.7,70,48,18,30.24,30.00,10,3,10,0.00
2013-3-11,81.1,62.9,37.8,42.2,38.3,32.8,85,45,20,30.15,29.88,10,3,10,0.00
2013-3-12,83.1,72.7,48.9,45.2,42.1,38.8,72,36,24,30.00,29.85,7,3,8,0.00
2013-3-14,82.4,62.6,47.3,52.5,46.2,43.2,90,60,28,29.97,29.85,9,2,9,0.00
2013-3-15,83.7,59.4,48.9,51.1,46.1,36.2,89,68,20,29.97,29.79,9,1,9,0.00
2013-3-16,82.9,61.8,43.3,46.5,37.6,29.8,84,47,17,29.91,29.74,13,3,14,0.00
2013-3-17,79.7,60.6,46.8,37.8,31.8,24.4,59,37,15,29.97,29.79,15,5,15,0.00
2013-3-18,73.0,56.2,37.6,47.8,36.3,30.4,87,51,24,29.97,29.79,8,2,10,0.00
2013-3-19,70.0,58.8,50.7,53.2,45.2,38.4,91,63,35,29.97,29.85,22,4,23,0.12
2013-3-20,63.5,56.4,50.7,54.0,52.4,48.2,98,87,68,29.94,29.82,26,10,27,0.16
2013-3-21,68.0,56.3,45.0,52.5,33.1,20.5,94,46,22,30.00,29.79,20,7,21,0.00
2013-3-22,66.7,54.1,37.4,27.2,23.0,19.0,52,31,20,30.00,29.85,22,7,23,0.00
2013-3-23,74.3,50.6,39.7,34.3,25.1,20.7,54,38,16,30.03,29.79,14,4,15,0.00
2013-3-24,77.5,56.4,39.2,46.3,36.1,30.4,81,52,21,29.97,29.74,10,2,11,0.00
2013-3-25,74.3,58.4,40.6,45.3,38.4,33.4,90,51,31,29.85,29.68,14,4,15,0.00
2013-3-26,72.9,58.7,44.8,49.1,41.3,34.3,82,55,32,29.85,29.68,14,4,15,0.05
2013-3-27,73.8,61.3,49.1,47.1,43.9,40.6,76,55,34,29.82,29.68,17,6,20,0.00
2013-3-28,71.8,60.4,51.6,51.1,46.2,39.5,91,62,35,29.94,29.79,17,5,17,0.00
2013-3-29,82.4,61.6,47.3,53.7,46.4,39.1,98,65,24,29.97,29.79,9,2,11,0.00
2013-3-30,77.7,63.4,54.9,51.2,46.4,43.5,71,56,32,29.88,29.74,12,3,12,0.00
2013-3-31,68.5,61.1,53.8,55.6,49.9,44.4,90,68,44,29.91,29.79,19,5,20,0.04
2013-4-1,69.1,59.1,51.6,55.0,50.2,45.1,95,75,45,29.97,29.88,11,2,13,0.00
2013-4-2,77.0,60.2,46.2,54.2,48.1,43.0,98,69,33,30.00,29.82,8,2,9,0.04
2013-4-3,77.4,63.1,48.0,54.3,49.6,44.3,92,65,35,29.97,29.74,10,2,11,0.00
2013-4-4,66.0,60.8,54.1,55.6,53.5,49.8,96,78,66,29.91,29.74,20,7,25,0.42
2013-4-5,69.4,60.4,52.5,54.2,50.0,44.7,96,71,43,30.00,29.85,17,6,20,0.00
2013-4-6,70.5,62.0,54.5,51.3,48.9,45.0,83,64,42,30.00,29.85,15,7,18,0.00
2013-4-7,68.7,60.7,51.8,48.9,45.3,37.0,82,58,39,29.91,29.59,26,9,27,0.00
2013-4-8,69.8,57.5,46.4,48.2,34.0,27.3,90,46,23,29.88,29.59,28,9,28,0.21
2013-4-9,76.8,61.4,47.7,38.1,32.0,28.0,53,34,21,30.00,29.82,21,7,23,0.00
2013-4-10,86.5,67.1,46.0,59.7,44.1,38.3,85,48,24,30.03,29.74,13,3,16,0.00
2013-4-11,79.7,65.8,56.3,41.5,37.6,29.3,52,37,20,29.85,29.59,20,8,23,0.00
2013-4-12,84.7,67.1,50.7,42.7,37.6,32.5,54,36,19,29.74,29.53,10,3,11,0.00
2013-4-13,81.3,66.2,50.0,48.2,36.5,19.6,79,40,15,29.71,29.53,12,4,15,0.00
2013-4-14,78.3,62.8,51.8,34.5,30.4,22.5,40,30,20,29.74,29.50,19,6,19,0.00
2013-4-15,70.0,59.0,47.7,33.1,28.8,25.2,49,33,22,29.79,29.59,22,6,22,0.00
2013-4-16,68.2,54.7,46.8,28.5,25.7,23.7,40,34,22,29.94,29.79,20,9,24,0.00
2013-4-17,73.2,67.3,52.3,28.7,25.7,20.7,32,21,17,30.12,29.97,20,7,20,0.00
2013-4-18,81.9,64.4,45.0,41.5,33.8,23.6,53,34,19,30.15,29.94,13,4,13,0.00
2013-4-19,84.2,65.3,46.4,48.0,40.3,36.3,76,44,22,30.06,29.82,14,3,15,0.04
2013-4-20,86.4,67.8,52.3,43.8,37.4,33.9,60,35,18,29.97,29.71,19,5,19,0.00
2013-4-21,88.2,73.1,47.7,44.4,39.7,37.7,74,36,18,29.88,29.68,13,4,13,0.00
2013-4-22,88.0,75.6,53.6,44.9,36.7,18.6,66,28,13,29.82,29.62,20,6,23,0.00
2013-4-23,87.8,69.6,54.3,43.0,29.0,18.6,54,24,13,29.85,29.59,15,5,18,0.00
2013-4-24,91.8,71.3,50.2,42.8,32.6,24.5,68,29,9,29.74,29.53,15,4,17,0.00
2013-4-25,81.1,65.7,49.6,48.1,42.3,26.2,83,46,22,29.88,29.62,15,4,16,0.00
2013-4-26,84.9,66.8,51.3,57.1,48.3,43.8,82,55,30,30.03,29.82,11,3,13,0.00
2013-4-27,89.2,70.6,54.3,63.5,53.1,49.5,85,58,28,30.03,29.76,12,2,13,0.00
2013-4-28,88.2,72.7,56.3,57.2,51.7,44.5,87,53,26,29.85,29.59,11,2,11,0.00
2013-4-29,88.7,74.5,60.3,49.3,41.4,37.6,58,32,19,29.71,29.50,22,6,24,0.04
2013-4-30,82.8,71.0,61.5,39.6,29.1,14.4,32,22,10,29.76,29.56,33,11,33,0.00
2013-5-1,90.3,72.5,56.1,32.8,23.3,15.3,37,16,10,29.94,29.76,20,6,20,0.00
2013-5-2,93.0,70.1,47.3,55.2,36.4,28.2,61,33,12,30.03,29.79,10,3,11,0.00
2013-5-3,96.1,73.6,51.1,47.8,41.1,31.7,69,36,14,29.88,29.50,14,3,14,0.00
2013-5-4,91.8,72.7,55.8,41.7,37.2,27.0,49,30,14,29.62,29.26,26,6,30,0.00
2013-5-5,76.3,65.3,57.2,50.8,44.5,36.3,66,48,30,29.62,29.32,19,5,24,0.00
2013-5-6,68.7,61.5,54.0,56.7,51.2,46.1,89,70,49,29.76,29.62,15,3,17,0.08
2013-5-7,72.7,62.5,52.0,55.3,51.1,47.2,90,69,43,29.82,29.74,14,3,14,0.04
2013-5-8,79.0,67.3,58.8,56.3,52.3,46.5,85,62,34,29.91,29.79,12,3,13,0.00
2013-5-9,87.4,70.8,57.2,55.9,52.7,49.5,82,56,30,29.94,29.74,10,3,13,0.00
2013-5-10,89.6,75.7,57.7,61.2,56.3,51.8,83,54,31,29.94,29.76,12,3,12,0.00
2013-5-11,93.2,77.0,61.3,61.9,57.8,53.5,89,56,28,29.88,29.74,11,4,13,0.00
2013-5-12,95.2,85.8,72.5,52.1,45.5,41.4,40,26,17,29.85,29.71,15,6,16,0.00
2013-5-13,93.4,76.0,58.6,63.8,50.8,43.7,73,45,22,29.85,29.65,14,4,15,0.00
2013-5-14,90.9,76.6,59.2,58.5,52.0,44.3,80,47,20,29.71,29.56,12,4,12,0.00
2013-5-15,79.3,70.2,60.8,54.6,48.2,42.3,61,46,32,29.79,29.65,18,5,18,0.00
2013-5-16,74.5,66.6,60.6,52.8,48.5,45.8,67,53,42,29.76,29.65,22,6,22,0.00
2013-5-17,76.1,65.5,54.5,49.3,43.8,34.2,74,48,22,29.82,29.71,24,6,24,0.00
2013-5-18,83.3,68.6,50.7,52.6,42.8,36.1,81,43,22,29.91,29.76,11,4,12,0.00
2013-5-19,86.0,71.7,58.5,43.6,37.6,31.9,46,30,19,29.94,29.74,18,6,18,0.00
2013-5-20,92.5,74.2,55.9,49.1,40.8,34.3,52,33,14,29.85,29.62,13,4,15,0.00
2013-5-21,82.8,70.7,54.7,47.0,37.0,18.4,52,31,19,29.79,29.62,24,6,27,0.00
2013-5-22,76.1,61.5,48.4,37.4,25.4,19.6,50,27,13,29.82,29.62,22,7,24,0.00
2013-5-23,76.8,61.9,48.9,41.1,34.9,29.6,57,38,21,29.79,29.68,13,4,14,0.00
2013-5-24,80.2,64.5,46.8,44.2,38.2,32.7,71,40,21,29.79,29.65,15,3,15,0.00
2013-5-25,78.6,66.8,49.8,46.1,41.7,35.6,71,42,26,29.82,29.65,15,4,15,0.00
2013-5-26,77.9,66.7,54.9,49.7,44.8,37.8,71,47,25,29.88,29.74,17,6,19,0.00
2013-5-27,68.9,62.0,56.7,57.8,50.2,44.5,92,66,45,29.88,29.76,20,7,20,0.13
2013-5-28,78.6,67.3,58.5,57.9,52.3,42.5,93,63,30,29.79,29.62,12,4,14,0.00
2013-5-29,82.4,71.0,61.2,52.8,47.5,35.3,70,46,20,29.71,29.59,19,4,19,0.00
2013-5-30,88.5,70.2,52.3,52.5,42.9,27.9,81,45,13,29.76,29.65,9,2,12,0.00
2013-5-31,93.0,74.7,52.3,45.4,40.6,34.5,72,34,14,29.82,29.62,18,6,21,0.00
2013-6-1,100.4,83.4,68.5,60.2,43.7,32.9,62,27,13,29.68,29.44,13,5,14,0.00
2013-6-2,96.8,77.5,60.3,52.4,46.4,41.2,63,37,17,29.53,29.38,12,3,12,0.00
2013-6-3,101.8,94.5,79.5,50.7,45.8,43.5,34,20,15,29.50,29.38,15,6,15,0.00
2013-6-4,88.9,78.0,65.1,57.7,53.3,49.1,61,43,32,29.65,29.53,16,6,16,0.00
2013-6-5,89.1,75.2,60.6,62.6,54.4,49.1,69,50,29,29.76,29.56,13,4,13,0.00
2013-6-6,90.9,77.0,62.2,69.1,58.9,52.8,80,56,32,29.71,29.50,11,3,13,0.00
2013-6-7,98.6,81.6,66.2,73.4,64.5,59.9,91,61,29,29.65,29.41,6,2,8,0.00
2013-6-8,101.1,85.1,69.3,64.4,58.6,52.2,81,45,21,29.50,29.32,15,4,17,0.00
2013-6-9,86.7,79.1,66.7,63.0,56.6,50.8,65,47,36,29.59,29.38,22,8,23,0.00
2013-6-10,72.7,64.9,59.4,59.7,55.1,50.5,89,72,49,29.74,29.59,18,5,18,0.25
2013-6-11,83.3,70.8,57.0,60.5,54.4,48.4,92,60,31,29.76,29.59,17,3,26,0.00
2013-6-12,87.6,69.9,56.8,57.9,48.4,30.8,80,52,19,29.71,29.59,18,3,18,0.00
2013-6-13,88.5,74.3,58.8,50.4,39.6,31.4,57,31,16,29.85,29.71,19,4,19,0.00
2013-6-14,92.5,75.8,61.2,53.8,41.0,32.0,57,31,14,29.79,29.53,15,5,15,0.00
2013-6-15,91.2,76.1,56.1,52.2,45.9,41.0,71,38,18,29.68,29.56,14,4,16,0.00
2013-6-16,91.2,78.1,59.2,52.4,47.9,40.7,70,37,18,29.79,29.68,12,5,13,0.00
2013-6-17,79.5,73.9,70.3,49.8,45.9,43.0,47,37,32,29.71,29.65,13,6,16,0.00
2013-6-18,80.4,70.2,59.9,52.3,47.3,33.0,71,46,24,29.76,29.59,19,7,23,0.00
2013-6-19,82.6,70.0,56.1,50.2,42.8,33.7,70,40,20,29.85,29.71,14,4,15,0.00
2013-6-20,88.9,71.2,53.2,51.8,45.5,39.1,73,44,19,29.79,29.62,12,3,12,0.00
2013-6-21,93.6,75.7,55.8,49.6,42.7,30.3,70,36,11,29.76,29.59,12,3,12,0.00
2013-6-22,98.1,77.9,57.4,53.3,44.3,38.2,61,34,13,29.71,29.50,13,4,13,0.00
2013-6-23,81.0,70.3,65.5,57.9,50.8,45.3,68,51,36,29.62,29.50,24,6,24,0.00
2013-6-24,71.6,65.5,62.1,61.0,56.0,47.7,95,73,45,29.71,29.53,20,8,20,0.04
2013-6-25,75.0,67.6,62.1,64.9,62.0,59.1,98,83,66,29.74,29.68,26,8,26,0.29
2013-6-26,88.0,76.7,67.3,63.4,60.0,54.5,81,59,33,29.79,29.71,16,6,22,0.00
2013-6-27,97.0,80.4,63.9,66.8,60.0,48.4,91,56,21,29.85,29.71,10,2,10,0.00
2013-6-28,97.5,82.6,65.3,73.0,63.0,59.5,91,57,29,29.79,29.56,13,3,15,0.00
2013-6-29,102.6,85.3,68.9,73.3,64.4,54.5,89,55,22,29.68,29.47,6,2,7,0.00
2013-6-30,100.9,84.7,66.2,76.3,62.4,53.5,89,52,23,29.56,29.41,11,3,11,0.00
2013-7-1,104.5,85.7,68.2,74.6,63.2,49.0,85,53,16,29.59,29.47,7,2,8,0.09
2013-7-2,102.6,87.8,72.0,70.4,64.8,56.7,77,50,25,29.62,29.50,16,4,17,0.00
2013-7-3,110.3,89.6,71.4,74.3,61.0,48.0,72,42,16,29.62,29.38,13,3,17,0.00
2013-7-4,109.8,91.2,74.3,58.1,53.1,46.7,47,30,13,29.50,29.32,16,5,18,0.00
2013-7-5,90.7,80.5,70.3,59.8,52.4,44.8,64,39,27,29.47,29.35,17,5,17,0.03
2013-7-6,91.9,77.7,63.5,65.3,56.5,50.7,79,52,27,29.56,29.41,17,4,17,0.00
2013-7-7,95.9,79.4,61.2,62.5,54.7,46.6,87,47,19,29.59,29.44,14,3,14,0.00
2013-7-8,95.7,77.3,59.5,60.2,51.2,43.4,82,45,17,29.71,29.56,13,4,13,0.00
2013-7-9,99.0,79.0,58.5,65.6,51.1,38.9,80,46,13,29.79,29.62,11,3,14,0.00
2013-7-10,99.7,76.5,61.7,61.5,52.6,38.7,80,51,16,29.71,29.53,18,4,19,0.00
2013-7-11,92.8,76.2,58.6,54.2,46.6,38.9,61,36,20,29.68,29.53,13,4,14,0.00
2013-7-12,92.3,76.6,58.1,59.1,50.1,43.5,73,43,19,29.71,29.53,13,4,17,0.00
2013-7-13,94.5,71.9,59.2,59.1,52.8,43.4,80,55,18,29.71,29.56,12,2,12,0.00
2013-7-14,100.0,80.1,58.1,62.9,52.2,44.2,77,43,17,29.74,29.53,10,3,10,0.00
2013-7-15,92.1,77.5,61.3,58.0,51.3,44.0,78,43,21,29.65,29.47,11,4,12,0.00
2013-7-16,87.1,72.4,57.9,52.6,48.8,41.6,74,46,21,29.76,29.56,15,5,15,0.00
2013-7-17,96.4,77.0,56.1,56.5,49.9,42.1,82,44,17,29.85,29.68,13,3,13,0.00
2013-7-18,90.9,78.2,57.6,59.9,51.0,45.4,75,42,25,29.82,29.59,11,4,12,0.00
2013-7-19,96.3,71.7,62.6,62.1,54.4,49.2,73,58,24,29.68,29.47,13,2,13,0.00
2013-7-20,90.7,82.5,65.1,65.0,59.5,56.3,85,49,35,29.56,29.35,12,3,12,0.00
2013-7-21,90.7,80.5,68.5,59.3,54.9,51.7,72,44,34,29.56,29.41,13,4,13,0.00
2013-7-22,84.4,78.5,73.2,53.0,48.6,43.0,42,35,30,29.68,29.53,15,5,15,0.00
2013-7-23,91.2,75.3,66.0,53.1,48.5,42.4,63,42,21,29.76,29.65,15,5,15,0.00
2013-7-26,93.4,87.1,79.7,66.8,61.1,54.7,56,42,29,29.71,29.59,8,4,9,0.00
2013-7-27,89.2,80.8,66.7,62.8,56.8,50.9,79,46,34,29.71,29.47,13,4,15,0.00
2013-7-28,93.4,80.1,64.4,64.1,56.3,48.2,74,47,30,29.59,29.41,15,4,15,0.00
2013-7-29,85.6,73.1,60.4,55.7,50.2,45.7,70,47,25,29.74,29.53,20,5,20,0.00
2013-7-30,90.7,74.2,56.8,60.4,53.1,43.5,82,52,21,29.85,29.68,10,3,11,0.00
2013-7-31,87.6,74.8,62.8,60.2,53.6,48.0,73,50,29,29.82,29.62,17,4,17,0.00
2013-8-1,84.2,71.5,57.9,62.1,52.3,46.9,77,52,32,29.79,29.62,17,4,17,0.00
2013-8-2,91.4,73.9,57.9,59.5,52.6,45.4,83,52,24,29.74,29.56,10,3,13,0.00
2013-8-3,92.5,75.4,57.6,61.7,52.3,42.7,84,49,19,29.74,29.56,10,3,12,0.00
2013-8-4,91.2,75.4,58.6,58.6,52.2,41.9,80,48,19,29.74,29.59,11,3,12,0.00
2013-8-5,91.9,74.9,57.6,60.0,51.4,45.8,80,47,22,29.76,29.59,10,3,11,0.00
2013-8-6,72.1,61.6,56.1,56.7,50.0,46.1,82,67,46,29.76,29.68,6,1,6,0.00
2013-8-7,83.7,73.9,59.9,54.5,52.8,50.2,79,49,33,29.85,29.71,15,6,15,0.00
2013-8-8,87.4,72.2,57.4,57.5,52.3,46.1,84,53,26,29.79,29.62,13,3,14,0.00
2013-8-9,89.1,72.9,58.3,55.2,50.5,42.5,81,48,21,29.71,29.59,11,4,12,0.00
2013-8-10,88.7,73.4,58.1,58.6,52.9,47.5,82,52,26,29.79,29.65,11,3,12,0.00
2013-8-11,91.9,82.2,69.3,58.4,53.2,45.6,61,39,22,29.79,29.59,13,4,13,0.00
2013-8-12,93.6,76.1,59.7,56.6,50.5,42.4,78,45,18,29.76,29.62,12,3,13,0.00
2013-8-13,98.8,78.2,57.9,57.4,48.9,32.7,77,42,10,29.76,29.59,10,3,12,0.00
2013-8-14,95.7,77.7,59.4,62.4,50.0,43.3,74,42,17,29.74,29.56,12,3,13,0.00
2013-8-15,95.5,73.1,59.5,60.4,52.2,44.4,85,52,21,29.71,29.56,13,3,13,0.00
2013-8-16,96.8,80.1,62.2,63.3,55.5,43.8,85,47,19,29.74,29.59,11,4,12,0.00
2013-8-17,98.6,79.7,62.8,63.1,55.9,45.0,82,49,17,29.74,29.50,10,2,10,0.00
2013-8-18,95.4,79.1,65.1,66.7,60.5,55.1,82,56,31,29.65,29.47,9,3,10,0.00
2013-8-19,92.8,78.8,68.2,70.7,63.9,59.1,84,62,35,29.65,29.50,8,2,8,0.00
2013-8-20,97.0,81.3,71.1,67.6,59.9,54.5,75,51,26,29.65,29.47,3,3,3,0.00
2013-8-21,93.2,78.8,66.6,65.1,56.5,49.3,74,48,27,29.65,29.53,3,3,3,0.00
2013-8-22,93.2,77.4,64.8,59.9,51.7,44.0,74,44,19,29.68,29.53,3,3,3,0.00
2013-8-23,91.0,74.7,57.9,57.9,50.8,45.0,74,46,22,29.71,29.47,3,3,3,0.00
2013-8-24,89.8,75.2,61.3,53.8,51.2,47.5,71,45,28,29.62,29.50,3,3,3,0.00
2013-8-25,89.1,76.3,66.0,57.8,52.8,46.3,71,46,27,29.68,29.56,3,3,3,0.00
2013-8-26,90.0,74.6,62.8,55.6,49.2,39.9,73,45,18,29.76,29.59,3,3,3,0.00
2013-8-27,66.7,60.6,56.7,48.6,47.4,45.2,71,62,48,29.68,29.65,3,3,3,0.00
2013-9-21,62.6,60.1,56.8,60.2,55.9,52.1,93,86,72,29.71,29.59,0,0,0,0.41
2013-9-22,76.6,62.5,50.9,55.5,50.3,44.6,95,69,34,29.79,29.71,0,0,0,0.00
2013-9-23,87.1,67.7,52.9,59.9,51.7,45.9,93,62,26,29.82,29.65,0,0,0,0.00
2013-9-24,81.3,66.4,61.3,56.5,51.8,39.1,76,61,30,29.74,29.56,0,0,0,0.16
2013-9-25,61.0,54.4,48.4,47.7,40.0,33.5,83,60,36,29.74,29.62,0,0,0,0.00
2013-9-26,78.6,63.7,49.8,38.0,33.4,27.3,56,34,21,29.85,29.65,0,0,0,0.00
2013-9-27,85.1,63.2,48.6,42.6,35.9,28.5,63,40,16,29.94,29.76,0,0,0,0.00
2013-9-28,83.1,66.3,48.7,47.8,38.4,31.2,80,42,19,29.91,29.71,0,0,0,0.00
2013-9-29,75.4,67.2,61.9,54.5,49.1,34.0,66,53,30,29.85,29.74,0,0,0,0.00
2013-9-30,81.1,69.8,62.6,58.4,54.8,51.3,81,61,38,29.79,29.68,0,0,0,0.00
2013-10-1,85.3,67.3,56.1,58.7,48.6,37.7,90,55,27,29.79,29.68,0,0,0,0.00
2013-10-2,87.1,66.7,51.4,46.5,38.1,27.8,71,39,18,29.79,29.65,0,0,0,0.00
2013-10-3,79.0,65.4,55.2,32.5,29.2,21.2,38,27,15,29.94,29.79,0,0,0,0.00
2013-10-4,85.6,67.6,54.7,34.1,25.2,15.8,35,21,11,30.03,29.85,0,0,0,0.00
2013-10-5,91.2,66.1,46.4,40.3,29.5,17.7,47,28,10,30.03,29.85,0,0,0,0.00
2013-10-6,88.3,63.6,44.8,43.2,36.8,30.9,61,41,18,29.97,29.76,0,0,0,0.00
2013-10-7,86.5,63.2,45.5,44.4,37.1,32.3,63,42,18,29.82,29.62,0,0,0,0.00
2013-10-8,84.2,65.2,50.2,37.1,32.3,26.6,54,31,16,29.74,29.47,0,0,0,0.00
2013-10-9,79.2,66.2,56.7,35.5,31.9,27.8,36,28,20,29.59,29.38,0,0,0,0.00
2013-10-10,74.7,56.3,51.6,42.9,33.3,28.0,55,42,32,29.74,29.56,0,0,0,0.00
2013-10-22,91.0,78.9,57.9,44.5,40.8,37.0,52,28,18,29.82,29.65,0,0,0,0.00
2013-10-23,89.2,71.0,47.7,43.3,38.6,33.3,68,34,18,29.76,29.59,0,0,0,0.00
2013-10-24,81.1,58.8,42.1,45.9,38.8,31.1,71,51,23,29.88,29.71,0,0,0,0.00
2013-10-25,80.4,58.0,43.5,47.9,42.5,37.1,82,60,27,30.00,29.82,0,0,0,0.00
2013-10-26,82.2,59.0,43.2,47.1,42.3,38.0,87,60,22,30.00,29.76,0,0,0,0.00
2013-10-27,74.1,57.8,42.3,46.3,40.2,36.0,91,57,26,29.82,29.35,0,0,0,0.00
2013-10-29,63.1,59.6,55.9,45.4,43.8,40.0,60,56,47,29.82,29.79,0,0,0,0.00
2013-10-30,70.3,62.9,54.0,47.5,42.2,36.3,76,50,30,29.97,29.85,0,0,0,0.00
2013-10-31,67.5,54.2,47.1,42.7,41.0,38.9,75,62,36,29.94,29.85,0,0,0,0.00
2013-11-1,80.6,58.1,40.6,52.8,40.4,35.9,93,58,24,30.03,29.82,0,0,0,0.00
2013-11-5,68.4,56.6,48.4,37.2,32.1,23.6,49,40,25,30.06,29.74,0,0,0,0.00
2013-11-6,75.9,56.7,43.5,38.5,34.3,28.8,65,46,22,30.12,29.97,0,0,0,0.00
2013-11-7,58.5,56.5,53.1,41.3,39.3,36.9,59,53,48,30.03,29.85,0,0,0,0.00
2013-11-8,74.7,67.4,55.0,42.0,39.4,37.8,58,36,31,29.91,29.79,0,0,0,0.00
2013-11-9,75.9,61.8,45.3,43.0,40.0,37.3,75,48,30,29.88,29.74,0,0,0,0.00
2013-11-10,76.1,58.0,44.1,42.8,38.5,36.3,76,51,29,29.88,29.82,0,0,0,0.00
2013-11-11,65.5,57.0,51.1,41.2,38.2,36.2,61,50,35,29.94,29.88,0,0,0,0.00
2013-11-15,64.0,50.3,42.3,28.1,24.6,20.9,53,38,23,29.62,29.50,0,0,0,0.00
2013-11-16,68.4,52.9,40.6,38.2,32.8,25.7,69,48,31,29.76,29.59,0,0,0,1.27
2013-11-17,71.2,48.8,35.4,39.9,33.5,28.5,84,59,30,29.94,29.76,0,0,0,0.00
2013-11-18,63.3,49.8,35.8,44.3,37.0,29.3,83,63,40,30.00,29.88,0,0,0,0.00
2013-11-19,56.7,53.6,50.5,54.8,51.6,44.1,98,93,75,29.94,29.76,0,0,0,0.83
2013-11-20,56.8,55.3,50.9,56.3,54.4,49.0,98,97,93,29.76,29.68,0,0,0,0.12
2013-11-21,66.9,52.6,44.4,49.0,26.3,15.9,93,39,17,30.00,29.74,0,0,0,0.00
2013-11-22,73.4,55.0,42.3,24.7,18.5,12.4,39,24,13,30.03,29.82,0,0,0,0.04
2013-11-23,75.2,52.8,36.3,34.8,24.1,15.3,72,36,13,29.97,29.76,0,0,0,0.00
2013-11-24,64.9,45.6,33.8,39.2,32.5,26.9,83,63,34,30.15,29.97,0,0,0,0.00
2013-11-25,67.1,44.8,32.5,38.0,31.6,27.2,88,64,29,30.21,30.09,0,0,0,0.00
2013-11-26,66.7,45.6,35.6,37.5,33.1,29.3,82,65,33,30.18,29.94,0,0,0,0.00
2013-11-27,68.7,47.8,36.3,42.2,36.0,31.2,88,67,33,29.94,29.71,0,0,0,0.00
2013-11-28,72.1,51.4,39.0,45.3,37.5,33.9,89,63,29,29.94,29.74,0,0,0,0.00
2013-11-29,73.6,50.9,37.0,42.1,35.6,31.5,89,60,25,30.06,29.91,0,0,0,0.00
2013-11-30,72.9,51.9,39.7,45.5,36.7,33.7,89,60,27,30.15,29.97,0,0,0,0.00
2013-12-1,70.0,49.8,36.5,46.7,36.3,31.8,92,64,33,30.21,30.03,0,0,0,0.00
2013-12-2,63.0,49.6,36.0,50.2,38.8,31.9,97,69,42,30.09,29.71,0,0,0,0.00
2013-12-3,59.0,50.7,38.3,46.4,23.0,10.2,75,36,19,29.85,29.65,0,0,0,0.00
2013-12-4,53.2,37.8,24.8,16.0,11.1,4.7,56,34,18,30.03,29.85,0,0,0,0.00
2013-12-5,54.1,35.4,24.3,19.6,12.4,8.1,55,40,23,30.09,29.94,0,0,0,0.00
2013-12-6,44.4,34.1,22.5,35.9,21.7,11.0,97,62,38,30.12,29.82,0,0,0,0.17
2013-12-7,48.0,36.6,27.9,39.5,26.6,16.8,95,70,34,30.18,29.79,0,0,0,0.04
2013-12-8,45.9,32.6,23.9,22.1,15.3,10.1,78,51,29,30.27,30.12,0,0,0,0.00
2013-12-9,51.8,36.8,27.5,22.3,14.9,8.9,69,42,26,30.39,30.21,0,0,0,0.00
2013-12-10,54.5,36.1,26.1,24.3,20.5,18.0,74,56,28,30.39,30.06,0,0,0,0.00
2013-12-11,57.7,37.0,25.3,30.5,23.3,18.9,86,61,32,30.21,30.03,0,0,0,0.00
2013-12-12,62.2,39.7,27.3,32.6,25.2,21.0,88,60,27,30.21,30.00,0,0,0,0.00
2013-12-13,64.4,42.5,28.6,32.0,26.0,22.3,86,56,24,30.21,30.06,0,0,0,0.00
2013-12-14,61.5,43.5,31.6,35.1,27.9,23.1,78,56,34,30.33,30.15,0,0,0,0.00
2013-12-15,66.2,42.5,30.9,35.0,29.1,24.9,88,63,28,30.30,30.09,0,0,0,0.00
2013-12-16,64.8,42.9,29.3,39.5,29.0,24.3,90,62,30,30.18,29.97,0,0,0,0.00
2013-12-17,64.9,42.7,30.9,37.4,29.8,25.7,87,64,33,30.12,29.88,0,0,0,0.00
2013-12-18,59.4,43.1,32.2,39.5,32.4,25.6,85,68,38,29.94,29.62,0,0,0,0.00
2013-12-19,63.3,50.6,34.2,36.6,21.2,10.9,90,34,18,29.88,29.59,0,0,0,0.00
2013-12-20,65.5,46.3,30.9,23.0,13.8,5.8,49,28,13,29.94,29.76,0,0,0,0.00
2013-12-21,65.7,44.9,31.1,30.4,24.6,18.8,72,47,24,30.00,29.82,0,0,0,0.00
2013-12-22,72.9,48.1,32.2,39.7,31.0,26.1,88,56,24,30.18,30.00,0,0,0,0.00
2013-12-23,68.7,45.4,32.2,42.0,30.6,26.0,91,60,28,30.30,30.18,0,0,0,0.04
2013-12-24,73.8,48.8,32.4,42.6,30.2,23.2,95,54,22,30.21,30.03,0,0,0,0.00
2013-12-25,71.1,45.1,29.5,41.8,30.4,24.3,92,61,25,30.24,30.03,0,0,0,0.00
2013-12-26,72.1,44.2,28.6,42.3,27.6,21.2,94,58,22,30.21,30.00,0,0,0,0.00
2013-12-27,59.0,40.2,29.7,32.4,26.4,23.0,82,60,34,30.18,30.00,0,0,0,0.00
2013-12-28,73.4,46.2,27.9,37.3,24.2,16.7,93,50,18,30.09,29.88,0,0,0,0.00
2013-12-29,65.3,44.9,31.6,30.9,24.0,14.4,71,46,26,30.12,29.97,0,0,0,0.00
2013-12-30,65.8,44.7,31.1,32.8,27.4,23.5,80,54,26,30.18,30.03,0,0,0,0.00
2013-12-31,70.5,45.9,33.4,33.4,26.6,18.5,74,51,22,30.18,29.97,0,0,0,0.05
2014-1-1,65.7,44.1,30.9,39.2,27.6,21.1,85,56,27,30.12,29.97,0,0,0,0.00
2014-1-2,72.7,47.6,33.1,34.7,29.5,25.2,82,54,23,30.09,29.88,0,0,0,0.00